^^
Your Local Weather - Clay, NY Station Historical Data
Daily Summary for April 13, 2017 Units:  Metric    English   Both
« Previous Day
Next Day »
Daily Weekly Monthly Yearly Custom
  High: Low: Average:
Temperature: 11.2 °C 1 °C 6.3 °C
Dew Point: 1.7 °C -7.8 °C -1.8 °C
Humidity: 82% 27% 59%
Wind Speed: 9.7km/h 0km/h 3.5km/h
Wind Gust: 14.5km/h - -
Wind- - WNW
Pressure: 1031 hPa 1027.7 hPa -
Precipitation: 0 mm    
Historical Graphs
 
 
Tabular Data for April 13, 2017
Time Temperature Dew Point Pressure Wind Wind Speed Wind Gust Humidity Rainfall Rate (Hourly) solar
00:04 4.9 °C 0.7 °C 1027.7 hPa WNW 8 km/h 9.7 km/h 74% 0 mm 0 W/m2
00:10 4.8 °C 0.4 °C 1027.7 hPa NW 6.4 km/h 6.4 km/h 73% 0 mm 0 W/m2
00:16 4.8 °C 0.3 °C 1027.7 hPa NW 8 km/h 8 km/h 73% 0 mm 0 W/m2
00:22 4.7 °C 0.1 °C 1027.7 hPa NW 8 km/h 9.7 km/h 72% 0 mm 0 W/m2
00:28 4.6 °C 0 °C 1027.7 hPa WNW 6.4 km/h 9.7 km/h 72% 0 mm 0 W/m2
00:34 4.6 °C -0.3 °C 1027.7 hPa NW 6.4 km/h 8 km/h 71% 0 mm 0 W/m2
00:40 4.5 °C -0.5 °C 1027.7 hPa WNW 8 km/h 8 km/h 70% 0 mm 0 W/m2
00:46 4.4 °C -0.6 °C 1027.7 hPa NW 6.4 km/h 8 km/h 70% 0 mm 0 W/m2
00:52 4.4 °C -0.6 °C 1027.7 hPa NNW 4.8 km/h 8 km/h 70% 0 mm 0 W/m2
00:58 4.3 °C -0.8 °C 1027.7 hPa WNW 4.8 km/h 8 km/h 69% 0 mm 0 W/m2
01:04 4.4 °C -0.8 °C 1027.7 hPa NW 4.8 km/h 8 km/h 69% 0 mm 0 W/m2
01:10 4.3 °C -0.8 °C 1027.7 hPa West 4.8 km/h 4.8 km/h 69% 0 mm 0 W/m2
01:22 4.3 °C -0.8 °C 1027.7 hPa WNW 4.8 km/h 6.4 km/h 69% 0 mm 0 W/m2
01:28 4.3 °C -0.9 °C 1027.7 hPa WNW 3.2 km/h 6.4 km/h 69% 0 mm 0 W/m2
01:33 4.3 °C -1.1 °C 1027.7 hPa WSW 3.2 km/h 8 km/h 68% 0 mm 0 W/m2
01:40 4.3 °C -0.9 °C 1027.7 hPa WNW 4.8 km/h 6.4 km/h 69% 0 mm 0 W/m2
01:48 4.2 °C -0.9 °C 1027.7 hPa NW 4.8 km/h 6.4 km/h 69% 0 mm 0 W/m2
01:53 4.2 °C -1.2 °C 1027.7 hPa WNW 4.8 km/h 8 km/h 68% 0 mm 0 W/m2
01:59 4.3 °C -1.1 °C 1027.7 hPa WNW 4.8 km/h 4.8 km/h 68% 0 mm 0 W/m2
02:06 4.2 °C -1.2 °C 1027.7 hPa WNW 4.8 km/h 11.3 km/h 68% 0 mm 0 W/m2
02:12 4 °C -1.2 °C 1027.7 hPa WNW 4.8 km/h 9.7 km/h 69% 0 mm 0 W/m2
02:18 3.9 °C -1.1 °C 1027.7 hPa WNW 4.8 km/h 9.7 km/h 70% 0 mm 0 W/m2
02:23 3.8 °C -1.2 °C 1027.7 hPa NNW 4.8 km/h 6.4 km/h 70% 0 mm 0 W/m2
02:29 3.7 °C -1.3 °C 1027.7 hPa West 4.8 km/h 4.8 km/h 70% 0 mm 0 W/m2
02:36 3.6 °C -1.2 °C 1027.7 hPa NW 3.2 km/h 4.8 km/h 71% 0 mm 0 W/m2
02:42 3.5 °C -1.3 °C 1027.7 hPa West 3.2 km/h 3.2 km/h 71% 0 mm 0 W/m2
02:48 3.4 °C -1.2 °C 1027.7 hPa WNW 3.2 km/h 6.4 km/h 72% 0 mm 0 W/m2
02:54 3.3 °C -1.2 °C 1027.7 hPa WNW 3.2 km/h 6.4 km/h 72% 0 mm 0 W/m2
03:00 3.2 °C -1.2 °C 1028 hPa WNW 3.2 km/h 3.2 km/h 73% 0 mm 0 W/m2
03:06 3.1 °C -1.3 °C 1028 hPa WNW 1.6 km/h 3.2 km/h 73% 0 mm 0 W/m2
03:12 3.1 °C -1.3 °C 1028 hPa WNW 1.6 km/h 4.8 km/h 73% 0 mm 0 W/m2
03:18 3 °C -1.2 °C 1027.7 hPa WNW 1.6 km/h 4.8 km/h 74% 0 mm 0 W/m2
03:24 2.9 °C -1.2 °C 1027.7 hPa Calm   1.6 km/h 74% 0 mm 0 W/m2
03:29 2.9 °C -1.3 °C 1027.7 hPa WNW 1.6 km/h 1.6 km/h 74% 0 mm 0 W/m2
03:36 2.8 °C -1.2 °C 1027.7 hPa WNW 1.6 km/h 3.2 km/h 75% 0 mm 0 W/m2
03:42 2.8 °C -1.2 °C 1027.7 hPa Calm   4.8 km/h 75% 0 mm 0 W/m2
03:48 2.7 °C -1.3 °C 1027.7 hPa Calm   4.8 km/h 75% 0 mm 0 W/m2
03:54 2.7 °C -1.3 °C 1028 hPa WSW 1.6 km/h 1.6 km/h 75% 0 mm 0 W/m2
04:00 2.7 °C -1.3 °C 1028 hPa WSW 1.6 km/h 1.6 km/h 75% 0 mm 0 W/m2
04:06 2.7 °C -1.1 °C 1028 hPa WSW 1.6 km/h 1.6 km/h 76% 0 mm 0 W/m2
04:12 2.7 °C -1.1 °C 1028 hPa West 1.6 km/h 6.4 km/h 76% 0 mm 0 W/m2
04:18 2.7 °C -1.1 °C 1028 hPa West 1.6 km/h 6.4 km/h 76% 0 mm 0 W/m2
04:24 2.7 °C -1.1 °C 1028 hPa West 1.6 km/h 6.4 km/h 76% 0 mm 0 W/m2
04:30 2.7 °C -1.1 °C 1028.3 hPa WNW 3.2 km/h 3.2 km/h 76% 0 mm 0 W/m2
04:36 2.7 °C -1.1 °C 1028.3 hPa WNW 3.2 km/h 4.8 km/h 76% 0 mm 0 W/m2
04:42 2.7 °C -1.2 °C 1028.3 hPa WNW 3.2 km/h 3.2 km/h 76% 0 mm 0 W/m2
04:48 2.6 °C -1 °C 1028.3 hPa WNW 1.6 km/h 3.2 km/h 77% 0 mm 0 W/m2
04:54 2.6 °C -1.1 °C 1028.3 hPa WNW 1.6 km/h 3.2 km/h 77% 0 mm 0 W/m2
05:00 2.6 °C -1.1 °C 1028.7 hPa WNW 1.6 km/h 1.6 km/h 77% 0 mm 0 W/m2
05:06 2.6 °C -0.8 °C 1028.7 hPa WNW 1.6 km/h 4.8 km/h 78% 0 mm 0 W/m2
05:12 2.8 °C -0.8 °C 1028.7 hPa West 3.2 km/h 3.2 km/h 77% 0 mm 0 W/m2
05:18 2.9 °C -0.6 °C 1029 hPa West 1.6 km/h 3.2 km/h 78% 0 mm 0 W/m2
05:24 2.9 °C -0.5 °C 1029 hPa West 1.6 km/h 6.4 km/h 78% 0 mm 0 W/m2
05:30 3.1 °C -0.6 °C 1029 hPa WNW 3.2 km/h 3.2 km/h 77% 0 mm 0 W/m2
05:35 3.1 °C -0.6 °C 1029 hPa WNW 1.6 km/h 3.2 km/h 77% 0 mm 0 W/m2
05:42 3.2 °C -0.5 °C 1029 hPa WNW 1.6 km/h 4.8 km/h 77% 0 mm 0 W/m2
05:48 3.2 °C -0.4 °C 1029 hPa West 3.2 km/h 6.4 km/h 77% 0 mm 0 W/m2
05:54 3.2 °C -0.2 °C 1029 hPa West 3.2 km/h 3.2 km/h 78% 0 mm 0 W/m2
06:00 3.2 °C -0.2 °C 1029 hPa WNW 3.2 km/h 3.2 km/h 78% 0 mm 0 W/m2
06:06 3.2 °C -0.3 °C 1029 hPa WNW 1.6 km/h 4.8 km/h 78% 0 mm 0 W/m2
06:12 3.1 °C -0.3 °C 1029 hPa WNW 1.6 km/h 3.2 km/h 78% 0 mm 0 W/m2
06:18 2.9 °C -0.5 °C 1029 hPa WNW 1.6 km/h 3.2 km/h 78% 0 mm 0 W/m2
06:24 2.8 °C -0.5 °C 1029 hPa NW 1.6 km/h 4.8 km/h 79% 0 mm 0 W/m2
06:30 2.7 °C -0.4 °C 1029.3 hPa NW 1.6 km/h 4.8 km/h 80% 0 mm 5 W/m2
06:36 2.6 °C -0.5 °C 1029.3 hPa NW 1.6 km/h 4.8 km/h 80% 0 mm 9 W/m2
06:42 2.6 °C -0.4 °C 1029.3 hPa Calm   1.6 km/h 81% 0 mm 14 W/m2
06:45 2.5 °C -0.4 °C 1029.3 hPa Calm   1.6 km/h 81% 0 mm 18 W/m2
06:52 2.5 °C -0.4 °C 1029.3 hPa NW 1.6 km/h 1.6 km/h 81% 0 mm 23 W/m2
06:58 2.4 °C -0.5 °C 1029.7 hPa NW 1.6 km/h 3.2 km/h 81% 0 mm 28 W/m2
07:04 2.5 °C -0.4 °C 1030 hPa WSW 1.6 km/h 3.2 km/h 81% 0 mm 35 W/m2
07:10 2.6 °C -0.2 °C 1030 hPa WSW 1.6 km/h 4.8 km/h 82% 0 mm 44 W/m2
07:16 2.6 °C -0.3 °C 1030 hPa WSW 1.6 km/h 4.8 km/h 81% 0 mm 44 W/m2
07:22 2.8 °C -0.2 °C 1030 hPa WNW 1.6 km/h 3.2 km/h 81% 0 mm 46 W/m2
07:28 2.8 °C -0.1 °C 1030 hPa WNW 3.2 km/h 4.8 km/h 81% 0 mm 49 W/m2
07:33 2.9 °C 0 °C 1030 hPa WNW 1.6 km/h 4.8 km/h 81% 0 mm 84 W/m2
07:40 3.1 °C 0 °C 1030.4 hPa WNW 1.6 km/h 1.6 km/h 80% 0 mm 156 W/m2
07:46 3.3 °C 0.2 °C 1030.4 hPa WNW 1.6 km/h 1.6 km/h 80% 0 mm 174 W/m2
07:52 3.6 °C 0.3 °C 1030.4 hPa WNW 1.6 km/h 4.8 km/h 79% 0 mm 178 W/m2
07:58 3.8 °C 0.3 °C 1030.4 hPa West 3.2 km/h 6.4 km/h 78% 0 mm 236 W/m2
08:04 3.9 °C 0.4 °C 1030.4 hPa WNW 3.2 km/h 4.8 km/h 78% 0 mm 225 W/m2
08:10 4.2 °C 0.6 °C 1030.4 hPa NW 4.8 km/h 6.4 km/h 77% 0 mm 272 W/m2
08:16 4.3 °C 0.4 °C 1030.4 hPa West 6.4 km/h 6.4 km/h 76% 0 mm 197 W/m2
08:22 4.3 °C 0.4 °C 1030.4 hPa WNW 4.8 km/h 6.4 km/h 76% 0 mm 165 W/m2
08:28 4.4 °C 0.4 °C 1030.4 hPa WNW 4.8 km/h 6.4 km/h 75% 0 mm 265 W/m2
08:34 4.6 °C 0.4 °C 1030.7 hPa WNW 4.8 km/h 4.8 km/h 74% 0 mm 206 W/m2
08:39 4.7 °C 0.4 °C 1030.7 hPa NW 3.2 km/h 3.2 km/h 74% 0 mm 258 W/m2
08:46 5 °C 0.7 °C 1030.7 hPa NW 3.2 km/h 6.4 km/h 74% 0 mm 287 W/m2
08:52 5.2 °C 0.6 °C 1030.7 hPa West 3.2 km/h 4.8 km/h 72% 0 mm 285 W/m2
08:58 5.4 °C 0.9 °C 1030.7 hPa WNW 4.8 km/h 4.8 km/h 73% 0 mm 260 W/m2
09:04 5.6 °C 0.8 °C 1030.7 hPa NW 3.2 km/h 6.4 km/h 71% 0 mm 264 W/m2
09:10 5.8 °C 0.7 °C 1030.7 hPa WNW 4.8 km/h 9.7 km/h 70% 0 mm 406 W/m2
09:16 5.8 °C 0.8 °C 1030.7 hPa WNW 4.8 km/h 9.7 km/h 70% 0 mm 374 W/m2
09:22 6 °C 0.6 °C 1030.7 hPa WNW 4.8 km/h 8 km/h 68% 0 mm 459 W/m2
09:28 6.4 °C 0.9 °C 1030.7 hPa WNW 4.8 km/h 8 km/h 68% 0 mm 534 W/m2
09:35 6.5 °C 0.4 °C 1031 hPa NW 4.8 km/h 6.4 km/h 65% 0 mm 281 W/m2
09:42 6.3 °C 0.8 °C 1031 hPa WNW 4.8 km/h 4.8 km/h 68% 0 mm 262 W/m2
09:48 6.3 °C 0.2 °C 1031 hPa West 4.8 km/h 9.7 km/h 65% 0 mm 663 W/m2
09:54 7.4 °C 1.1 °C 1030.4 hPa NNW 4.8 km/h 6.4 km/h 64% 0 mm 642 W/m2
10:00 7.7 °C 0.8 °C 1030.7 hPa WNW 3.2 km/h 3.2 km/h 62% 0 mm 297 W/m2
10:06 7 °C 0.4 °C 1031 hPa WNW 4.8 km/h 6.4 km/h 63% 0 mm 167 W/m2
10:12 7.3 °C 0 °C 1030.7 hPa North 6.4 km/h 8 km/h 60% 0 mm 694 W/m2
10:18 8.1 °C 1.7 °C 1030.7 hPa NW 6.4 km/h 8 km/h 64% 0 mm 729 W/m2
10:24 8.1 °C 0.6 °C 1030.7 hPa NNW 4.8 km/h 6.4 km/h 59% 0 mm 715 W/m2
10:30 8.2 °C 0.6 °C 1030.4 hPa NNW 4.8 km/h 6.4 km/h 59% 0 mm 715 W/m2
10:36 8.2 °C 0.8 °C 1030.7 hPa NNW 4.8 km/h 8 km/h 60% 0 mm 710 W/m2
10:42 8.2 °C 1.6 °C 1030.4 hPa NW 6.4 km/h 6.4 km/h 63% 0 mm 759 W/m2
10:48 8.4 °C 0.7 °C 1030.4 hPa NW 3.2 km/h 8 km/h 58% 0 mm 142 W/m2
10:53 8.2 °C -0.3 °C 1030.7 hPa NNW 4.8 km/h 11.3 km/h 55% 0 mm 747 W/m2
11:00 8.8 °C 1.5 °C 1030.7 hPa WNW 4.8 km/h 8 km/h 60% 0 mm 761 W/m2
11:06 8.8 °C -0.1 °C 1031 hPa WNW 4.8 km/h 8 km/h 54% 0 mm 773 W/m2
11:12 8.8 °C 0.8 °C 1031 hPa NW 4.8 km/h 9.7 km/h 57% 0 mm 786 W/m2
11:18 8.9 °C 0.6 °C 1031 hPa NNW 6.4 km/h 9.7 km/h 56% 0 mm 796 W/m2
11:24 9.6 °C 0.7 °C 1031 hPa North 6.4 km/h 8 km/h 54% 0 mm 800 W/m2
11:30 9.3 °C 0.4 °C 1031 hPa West 4.8 km/h 8 km/h 54% 0 mm 819 W/m2
11:36 10.1 °C 1.4 °C 1031 hPa WNW 4.8 km/h 8 km/h 55% 0 mm 819 W/m2
11:42 9.6 °C 1.2 °C 1030.7 hPa NNW 6.4 km/h 8 km/h 56% 0 mm 861 W/m2
11:48 9.4 °C 0.1 °C 1030.7 hPa West 8 km/h 11.3 km/h 52% 0 mm 854 W/m2
11:54 9.7 °C 1.3 °C 1030.7 hPa NNW 8 km/h 14.5 km/h 56% 0 mm 868 W/m2
12:00 9.9 °C 1.1 °C 1030.4 hPa NW 6.4 km/h 6.4 km/h 54% 0 mm 865 W/m2
12:05 9.9 °C 0.8 °C 1030.4 hPa NW 4.8 km/h 11.3 km/h 53% 0 mm 884 W/m2
12:12 9.3 °C -0.1 °C 1030.4 hPa West 6.4 km/h 6.4 km/h 52% 0 mm 693 W/m2
12:18 9.7 °C 0.6 °C 1030.4 hPa WNW 6.4 km/h 8 km/h 53% 0 mm 861 W/m2
12:23 9.8 °C 0.4 °C 1030 hPa NW 6.4 km/h 9.7 km/h 52% 0 mm 805 W/m2
12:30 9.9 °C 0.8 °C 1030.4 hPa NW 6.4 km/h 6.4 km/h 53% 0 mm 912 W/m2
12:36 10.1 °C -0.8 °C 1030 hPa WNW 6.4 km/h 8 km/h 47% 0 mm 896 W/m2
12:42 10.2 °C 0.4 °C 1030.4 hPa NW 6.4 km/h 8 km/h 51% 0 mm 912 W/m2
12:48 10.6 °C 0.1 °C 1030 hPa WNW 8 km/h 9.7 km/h 48% 0 mm 759 W/m2
12:54 10.7 °C -1.4 °C 1030.4 hPa NW 6.4 km/h 11.3 km/h 43% 0 mm 831 W/m2
13:00 10.4 °C -0.1 °C 1030.4 hPa NW 8 km/h 8 km/h 48% 0 mm 715 W/m2
13:05 10.3 °C -1.2 °C 1030 hPa NW 6.4 km/h 9.7 km/h 45% 0 mm 605 W/m2
13:12 10.2 °C -0.7 °C 1030 hPa WNW 6.4 km/h 11.3 km/h 47% 0 mm 429 W/m2
13:13 10.1 °C -1.7 °C 1030 hPa West 6.4 km/h 11.3 km/h 44% 0 mm 492 W/m2
13:20 9.7 °C -2.3 °C 1030 hPa WNW 6.4 km/h 6.4 km/h 43% 0 mm 408 W/m2
13:26 9.7 °C -1.3 °C 1030 hPa WNW 6.4 km/h 6.4 km/h 46% 0 mm 378 W/m2
13:32 9.7 °C -1.1 °C 1030 hPa NW 6.4 km/h 6.4 km/h 47% 0 mm 445 W/m2
13:38 10.3 °C -0.5 °C 1030.4 hPa WNW 6.4 km/h 6.4 km/h 47% 0 mm 828 W/m2
13:44 10.4 °C -1.3 °C 1030 hPa West 6.4 km/h 11.3 km/h 44% 0 mm 965 W/m2
13:50 10.7 °C -0.5 °C 1030.4 hPa NW 9.7 km/h 9.7 km/h 46% 0 mm 891 W/m2
13:56 10.5 °C -0.9 °C 1030 hPa NW 8 km/h 9.7 km/h 45% 0 mm 417 W/m2
14:02 10.6 °C -1.2 °C 1030 hPa WNW 6.4 km/h 6.4 km/h 44% 0 mm 626 W/m2
14:08 10.3 °C -1.1 °C 1030 hPa NW 6.4 km/h 12.9 km/h 45% 0 mm 856 W/m2
14:14 10.4 °C -1 °C 1030 hPa NW 6.4 km/h 11.3 km/h 45% 0 mm 796 W/m2
14:20 10.7 °C -1.7 °C 1030 hPa WSW 6.4 km/h 6.4 km/h 42% 0 mm 795 W/m2
14:26 11 °C -0.8 °C 1030 hPa NW 6.4 km/h 11.3 km/h 44% 0 mm 749 W/m2
14:32 11.2 °C -1.6 °C 1030 hPa NNW 6.4 km/h 6.4 km/h 41% 0 mm 752 W/m2
14:38 10.9 °C -2.5 °C 1030 hPa NW 8 km/h 12.9 km/h 39% 0 mm 476 W/m2
14:43 10.8 °C -2.7 °C 1030 hPa WNW 6.4 km/h 8 km/h 39% 0 mm 431 W/m2
14:50 10.7 °C -1.7 °C 1030 hPa NW 4.8 km/h 6.4 km/h 42% 0 mm 548 W/m2
14:56 10.6 °C -2.8 °C 1029.7 hPa West 6.4 km/h 8 km/h 39% 0 mm 566 W/m2
15:02 10.3 °C -2.1 °C 1029.7 hPa WNW 6.4 km/h 6.4 km/h 42% 0 mm 353 W/m2
15:08 10.2 °C -1.3 °C 1029.7 hPa NW 6.4 km/h 8 km/h 45% 0 mm 452 W/m2
15:14 10.2 °C -2.5 °C 1029.3 hPa WNW 6.4 km/h 8 km/h 41% 0 mm 369 W/m2
15:20 10.2 °C -2.8 °C 1029.3 hPa West 6.4 km/h 6.4 km/h 40% 0 mm 613 W/m2
15:26 10.4 °C -2.6 °C 1029.3 hPa NNW 6.4 km/h 12.9 km/h 40% 0 mm 355 W/m2
15:32 10.1 °C -2.9 °C 1029.3 hPa NW 6.4 km/h 8 km/h 40% 0 mm 355 W/m2
15:38 10.1 °C -4 °C 1029.3 hPa NNW 6.4 km/h 8 km/h 37% 0 mm 385 W/m2
15:44 10.1 °C -3.3 °C 1029.3 hPa NW 6.4 km/h 6.4 km/h 39% 0 mm 330 W/m2
15:50 10.1 °C -2.3 °C 1029.3 hPa North 4.8 km/h 11.3 km/h 42% 0 mm 457 W/m2
15:54 10.1 °C -2.6 °C 1029.3 hPa NW 6.4 km/h 11.3 km/h 41% 0 mm 541 W/m2
16:00 10.8 °C -2.3 °C 1029 hPa WNW 6.4 km/h 6.4 km/h 40% 0 mm 666 W/m2
16:06 10.6 °C -2.4 °C 1029.3 hPa West 4.8 km/h 6.4 km/h 40% 0 mm 417 W/m2
16:12 10.2 °C -3.2 °C 1029 hPa NNE 8 km/h 12.9 km/h 39% 0 mm 487 W/m2
16:18 10.5 °C -1.6 °C 1029 hPa NW 6.4 km/h 12.9 km/h 43% 0 mm 345 W/m2
16:24 10.5 °C -4.3 °C 1029 hPa West 4.8 km/h 9.7 km/h 35% 0 mm 515 W/m2
16:30 10.8 °C -3.3 °C 1029 hPa NNW 4.8 km/h 6.4 km/h 37% 0 mm 657 W/m2
16:36 10.6 °C -4.3 °C 1029 hPa NW 6.4 km/h 12.9 km/h 35% 0 mm 520 W/m2
16:42 10.5 °C -3.9 °C 1029 hPa NW 8 km/h 8 km/h 36% 0 mm 512 W/m2
16:48 11.1 °C -4.6 °C 1029 hPa NNW 4.8 km/h 12.9 km/h 33% 0 mm 508 W/m2
16:54 10.8 °C -6.1 °C 1029 hPa NNW 6.4 km/h 6.4 km/h 30% 0 mm 534 W/m2
17:00 10.8 °C -5.7 °C 1029 hPa NNW 8 km/h 8 km/h 31% 0 mm 466 W/m2
17:06 10.7 °C -4.6 °C 1029 hPa NW 8 km/h 9.7 km/h 34% 0 mm 490 W/m2
17:12 11 °C -5.5 °C 1029 hPa NW 6.4 km/h 6.4 km/h 31% 0 mm 466 W/m2
17:18 10.9 °C -4.7 °C 1029 hPa NW 4.8 km/h 11.3 km/h 33% 0 mm 438 W/m2
17:24 11.2 °C -5.8 °C 1029 hPa NNW 4.8 km/h 8 km/h 30% 0 mm 443 W/m2
17:29 11 °C -6.4 °C 1029 hPa NNE 6.4 km/h 6.4 km/h 29% 0 mm 415 W/m2
17:36 10.8 °C -6.6 °C 1028.7 hPa NNW 6.4 km/h 9.7 km/h 29% 0 mm 241 W/m2
17:42 10.3 °C -6.9 °C 1028.7 hPa NNW 6.4 km/h 9.7 km/h 29% 0 mm 330 W/m2
17:48 10.3 °C -6.5 °C 1028.7 hPa NW 6.4 km/h 9.7 km/h 30% 0 mm 334 W/m2
17:54 10.4 °C -6.9 °C 1028.7 hPa West 4.8 km/h 8 km/h 29% 0 mm 260 W/m2
18:00 10.4 °C -6.9 °C 1028.3 hPa West 3.2 km/h 3.2 km/h 29% 0 mm 218 W/m2
18:06 10.5 °C -5.9 °C 1028.3 hPa WNW 4.8 km/h 4.8 km/h 31% 0 mm 193 W/m2
18:12 10.8 °C -6.1 °C 1028.3 hPa NNW 3.2 km/h 6.4 km/h 30% 0 mm 174 W/m2
18:18 10.8 °C -7.4 °C 1028.3 hPa WNW 3.2 km/h 6.4 km/h 27% 0 mm 211 W/m2
18:23 10.9 °C -6.5 °C 1028.3 hPa NW 3.2 km/h 8 km/h 29% 0 mm 171 W/m2
18:30 10.6 °C -7.2 °C 1028.3 hPa NW 4.8 km/h 11.3 km/h 28% 0 mm 148 W/m2
18:36 10.4 °C -6.9 °C 1028.3 hPa NW 4.8 km/h 11.3 km/h 29% 0 mm 137 W/m2
18:42 10.4 °C -7.8 °C 1028.3 hPa WNW 3.2 km/h 4.8 km/h 27% 0 mm 104 W/m2
18:48 10.4 °C -6.9 °C 1028.3 hPa WNW 1.6 km/h 4.8 km/h 29% 0 mm 102 W/m2
18:54 10.4 °C -6.9 °C 1028.3 hPa Calm   3.2 km/h 29% 0 mm 95 W/m2
18:59 10.4 °C -6.1 °C 1028.3 hPa West 1.6 km/h 1.6 km/h 31% 0 mm 79 W/m2
19:12 9.8 °C -5.8 °C 1028 hPa Calm   1.6 km/h 33% 0 mm 21 W/m2
19:18 9.5 °C -6.4 °C 1028 hPa Calm   1.6 km/h 32% 0 mm 18 W/m2
19:24 9.3 °C -6.6 °C 1028 hPa Calm   1.6 km/h 32% 0 mm 16 W/m2
19:30 9.1 °C -6.7 °C 1028 hPa Calm     32% 0 mm 12 W/m2
19:35 8.9 °C -5.7 °C 1028 hPa Calm     35% 0 mm 9 W/m2
19:42 8.7 °C -6.7 °C 1028 hPa Calm     33% 0 mm 5 W/m2
19:48 8.4 °C -7 °C 1028 hPa Calm     33% 0 mm 0 W/m2
19:54 8.2 °C -4.9 °C 1028.3 hPa Calm     39% 0 mm 0 W/m2
20:00 7.8 °C -4.3 °C 1028.3 hPa Calm     42% 0 mm 0 W/m2
20:06 7.3 °C -4.4 °C 1028.3 hPa Calm     43% 0 mm 0 W/m2
20:18 6.6 °C -4.5 °C 1028.3 hPa Calm     45% 0 mm 0 W/m2
20:23 6.4 °C -4.1 °C 1028.3 hPa Calm     47% 0 mm 0 W/m2
20:30 6.1 °C -4.4 °C 1028.7 hPa Calm     47% 0 mm 0 W/m2
20:36 5.8 °C -3.8 °C 1028.7 hPa Calm     50% 0 mm 0 W/m2
20:42 5.6 °C -3.5 °C 1028.7 hPa Calm     52% 0 mm 0 W/m2
20:48 5.4 °C -2.9 °C 1029 hPa Calm     55% 0 mm 0 W/m2
20:54 5.2 °C -3.9 °C 1029 hPa Calm     52% 0 mm 0 W/m2
21:00 4.9 °C -4.9 °C 1029 hPa Calm     49% 0 mm 0 W/m2
21:06 4.7 °C -5.1 °C 1029 hPa Calm     49% 0 mm 0 W/m2
21:12 4.5 °C -4 °C 1029 hPa Calm     54% 0 mm 0 W/m2
21:18 4.2 °C -3.4 °C 1029 hPa Calm     58% 0 mm 0 W/m2
21:24 3.9 °C -3.4 °C 1029 hPa Calm     59% 0 mm 0 W/m2
21:30 3.7 °C -3.2 °C 1029 hPa Calm     61% 0 mm 0 W/m2
21:36 3.6 °C -4.2 °C 1029 hPa Calm     57% 0 mm 0 W/m2
21:42 3.4 °C -4.1 °C 1028.7 hPa Calm     58% 0 mm 0 W/m2
21:48 3.2 °C -3.8 °C 1028.7 hPa Calm     60% 0 mm 0 W/m2
21:54 3.1 °C -3.7 °C 1028.7 hPa Calm     61% 0 mm 0 W/m2
22:00 2.9 °C -3.7 °C 1028.7 hPa Calm     62% 0 mm 0 W/m2
22:06 2.8 °C -2.5 °C 1028.7 hPa Calm     68% 0 mm 0 W/m2
22:12 2.8 °C -1.9 °C 1028.7 hPa Calm     71% 0 mm 0 W/m2
22:18 2.9 °C -1.5 °C 1028.3 hPa Calm     73% 0 mm 0 W/m2
22:24 2.8 °C -1.6 °C 1028.3 hPa Calm     73% 0 mm 0 W/m2
22:30 2.6 °C -1.8 °C 1028.3 hPa Calm     73% 0 mm 0 W/m2
22:36 2.3 °C -2.1 °C 1028.3 hPa Calm     73% 0 mm 0 W/m2
22:42 2.1 °C -2.2 °C 1028.3 hPa Calm     73% 0 mm 0 W/m2
22:48 2.1 °C -2.2 °C 1028.3 hPa Calm     73% 0 mm 0 W/m2
22:54 2.1 °C -2.4 °C 1028.3 hPa Calm     72% 0 mm 0 W/m2
23:00 1.9 °C -2.2 °C 1028.3 hPa Calm     74% 0 mm 0 W/m2
23:06 1.9 °C -2.3 °C 1028.3 hPa Calm     74% 0 mm 0 W/m2
23:12 1.8 °C -2.9 °C 1028.3 hPa Calm     71% 0 mm 0 W/m2
23:18 1.8 °C -2.7 °C 1028.3 hPa Calm     72% 0 mm 0 W/m2
23:24 1.8 °C -2.2 °C 1028.3 hPa Calm     75% 0 mm 0 W/m2
23:30 1.5 °C -2.4 °C 1028.3 hPa Calm     75% 0 mm 0 W/m2
23:35 1.3 °C -2.8 °C 1028.3 hPa Calm     74% 0 mm 0 W/m2
23:42 1.2 °C -3.2 °C 1028.3 hPa Calm     73% 0 mm 0 W/m2
23:48 1.1 °C -3.2 °C 1028.3 hPa Calm     73% 0 mm 0 W/m2
23:53 1 °C -3.3 °C 1028.3 hPa Calm     73% 0 mm 0 W/m2
Country Meadow, Clay, NY, USA
Compliments of Weather Underground - 2 mb